STARLINK-34579, 64925

Orbit data source: Space-Track

STARLINK-34579, 64925 is a payload satellite owned by SpaceX/Seattle (US) in LEO that was launched on Sat, 26 Jul 2025 UTC via an FALCON 9 launch vehicle from the Air Force Eastern Test Range (AFETR). Payload-class satellites include a variety of spacecraft equipped with specific instruments for various scientific and technological missions. These include communications satellites like Starlink; space stations such as the ISS; scientific satellites like the Hubble; Earth observation satellites from companies like Planet Labs, Umbra, and HawkEye 360; GPS; miniature CubeSats for education and research; and military/defense satellites.

Loading next visibility...
Identifier
64925, 2025-157X
Orbit
LEO
Country
Flag of USUS
Related business
Manufacturer
SpaceX/Seattle
Mission
Operational Commercial Communications
Bus & Motor
STARLINK V2MO, Unknown motor
Mass
575 kg wet, ~530 kg dry
Launch date (UTC)
2025-07-26 (10 months ago)
Launch vehicle
FALCON 9
Launch site
Air Force Eastern Test Range (AFETR)
Object type
Payload
Rocket body
Debris
Shape & HBR
Box + 2 Pan, 17.7 m
Radar Cross Section
36.964 m², Large (>1 m²)

Expand to show TLE details & history
Last TLE update: 15 hours ago

TLE from 15 hours ago
0 STARLINK-34579
1 64925U 25157X   26145.30416357  .00022769  00000-0  77844-3 0  9992
2 64925  53.1609 349.8067 0001208 104.5457 255.5678 15.30202522 47850
Epoch: 2026-05-25T07:17Z
TLE epoch observation values (Epoch: 2026-05-25T07:17:59.732Z)
Latitude
-0°
Longitude
-2.58607°
Altitude
476.314 km
Speed
7.629 km/s
True Right ascension
23h 19m 13s
True Declination
0° 00' 00"
Sunlit
Object was in daylight at epoch
Visualization orbit readout
Latitude
Unknown
Longitude
Unknown
Altitude
Unknown
Speed
Unknown
Apparent Right ascension
Unknown
Apparent Declination
Unknown
Sunlit
N/A
Visualization observer readout
Local Sidereal Time
08:01:10
Azimuth
Unknown
Elevation
Unknown
Doppler factor
Unknown
Orbital elements
Apogee altitude
476.292 km
Perigee altitude
474.636 km
Semi-major axis
6,853.601 km
Eccentricity
0.00012
Inclination
53.1609°
RAAN
349.8067°
Arg. of periapsis
104.5457°
True anomaly
255.55439°
Mean anomaly
255.5678°
Eccentric anomaly
255.5611°
Mean motion
3.8253 °/min
Orbital period
94.11 mins
BSTAR
0.00077844
Loading maneuver chart data...
Computing Atmospheric mass density...
Loading historical data...
Loading historical data...
Loading historical data...
Loading historical data...
Loading historical data...
Loading historical data...
Loading historical data...

Documentation

Showing up to 5 results
|